Location: Cluj-Napoca
(46.7712°N, 23.6236°E)
Time: 18:31:05
(UTC+02:00)

ISS - Pass Details

Date: 23 January 2020
Orbit: 416 x 422 km, 51.6° (Epoch: 17 February)

Event Time Altitude Azimuth Distance (km) Brightness Sun altitude
Rises 20:10:08 0° 264° (W) 2,373 1.2 -29.8°
Reaches altitude 10° 20:12:18 10° 271° (W) 1,508 0.0 -30.2°
Enters shadow 20:13:00 15° 275° (W) 1,240 -0.6 -30.3°
